User: anonymous   Login
Location: Hickory_Viewmont
(35.7830°N, 81.3170°W)
Time: 21:23:22
(UTC-04:00)
Language:

Okean-O - Orbit

View from above orbital plane
View from above orbital plane
View from above satellite
View from above satellite

Ground track
Ground track

The orbit data is extracted from the following two-line orbital elements,

1 25860U 99039A   16242.04755592  .00000114  00000-0  23939-4 0  9999
2 25860  98.1511 217.5363 0001480  67.1456 292.9910 14.76388924920721
Epoch (UTC): 29 August 2016 01:08:28
Eccentricity: 0.0001480
inclination: 98.1511°
perigee height: 640 km
apogee height: 642 km
right ascension of ascending node: 217.5363°
argument of perigee: 67.1456°
revolutions per day: 14.76388924
mean anomaly at epoch: 292.9910°
orbit number at epoch: 92072

The dashed part of the orbit path shows where the satellite is in the earth's shadow,  

DLR